PulseSat

PulseSat

GSAT0212 (PRN E03)

Last updated on March 20, 2019, 3:12 a.m. UTC

1 41860U 16069B   19077.34627980 -.00000014  00000-0  00000-0 0  9990
2 41860  54.5930 174.5449 0003319 309.8551  50.1210  1.70473802 14510
UTC
Height (km)
Latitude
Longitude
Inclination
Orbital Period

Next 30 passes for location: Hong Kong

Rise time Rise Azimuth (degrees) Set time Set Azimuth (degrees) Duration Max altitude (degrees)

No matching passes for this satellites

PulseSat

PulseSat is the new satellites software and hardware trackering solution by Pulsely.
Satellite Two Line Element Set source: US Air Force Space Command

Download PulseSat for iOS
© 2017 Pulsely Limited